User: anonymous   Login
Location: Columbus
(29.5618°N, 96.6770°W)
Time: 12:51:54
(UTC-05:00)
Language:

Cosmos 2056 Rocket - Orbit

View from above orbital plane
View from above orbital plane
View from above satellite
View from above satellite

Ground track
Ground track

The orbit data is extracted from the following two-line orbital elements,

1 20433U 90004B   17116.51477552 +.00000021 +00000-0 +16221-4 0  9996
2 20433 074.0350 091.0186 0042035 233.8101 265.6215 14.35982879427501
Epoch (UTC): 26 April 2017 12:21:16
Eccentricity: 0.0042035
inclination: 74.0350°
perigee height: 742 km
apogee height: 802 km
right ascension of ascending node: 91.0186°
argument of perigee: 233.8101°
revolutions per day: 14.35982879
mean anomaly at epoch: 265.6215°
orbit number at epoch: 42750

The dashed part of the orbit path shows where the satellite is in the earth's shadow,  

DLR